Location: McFarlands Corners
(41.4117°N, 81.3382°W)
Time: 03:15:11
(UTC+00:00)

Tiros 1 - Pass Details

Date: 25 February 2026
Orbit: 618 x 649 km, 48.4° (Epoch: 7 March)

Event Time Altitude Azimuth Distance (km) Brightness Sun altitude
Rises 15:42:36 0° 298° (WNW) 2,911 10.1 33.1°
Reaches altitude 10° 15:44:59 10° 302° (WNW) 1,997 9.3 33.3°
Maximum altitude 15:49:29 54° 21° (NNE) 754 7.7 33.8°
Drops below altitude 10° 15:53:57 10° 99° (E) 1,979 10.3 34.2°
Sets 15:56:17 0° 104° (ESE) 2,881 11.0 34.5°
